User: anonymous   Login
Location: Aranbee
(34.0885°N, 118.2342°W)
Time: 17:22:58
(UTC+00:00)
Language:

Courier 1B Rocket - Orbit

View from above orbital plane
View from above orbital plane
View from above satellite
View from above satellite

Ground track
Ground track

The orbit data is extracted from the following two-line orbital elements,

1 00059U 60013B   21127.89721607  .00000117  00000-0  39111-4 0  9995
2 00059  28.2498 351.6008 0189188 129.3748 232.3719 13.52984536990338
Epoch (UTC): 07 May 2021 21:31:59
Eccentricity: 0.0189188
inclination: 28.2498°
perigee height: 920 km
apogee height: 1202 km
right ascension of ascending node: 351.6008°
argument of perigee: 129.3748°
revolutions per day: 13.52984536
mean anomaly at epoch: 232.3719°
orbit number at epoch: 99033

The dashed part of the orbit path shows where the satellite is in the earth's shadow,  

DLR